Little Falls, MN

9:02 PM CST on January 20, 2017 (GMT -0600)
Little Falls-Morrison County

Weather History for KLXL - March, 2013

Change the Weather History Date:

Thursday, March 14, 2013

  Actual Average Record
Temperature  
Mean Temperature 29 °F -  
Max Temperature 35 °F 39 °F 66 °F (2012)
Min Temperature 23 °F 19 °F -15 °F (1960)
Degree Days  
Heating Degree Days 36    
Moisture  
Dew Point 22 °F    
Average Humidity 79    
Maximum Humidity 93    
Minimum Humidity 65    
Precipitation  
Precipitation 0.14 in - - ()
Sea Level Pressure  
Sea Level Pressure 30.08 in    
Wind  
Wind Speed 4 mph (SSE)    
Max Wind Speed 10 mph    
Max Gust Speed -    
Visibility 7 miles    
Events Snow    
Averages and records for this station are not official NWS values.
T = Trace of Precipitation, MM = Missing Value Source: NWS Daily Summary

Daily Weather History Graph

Daily Weather History Graph

Search for Another Location

Airport or City:

Trip Planner

Search our weather history database for the weather conditions in past years. The results will help you decide how hot, cold, wet, or windy it might be!

Date:

Astronomy

Mar. 14, 2013 Rise Set
Actual Time 7:31 AM CDT 7:22 PM CDT
Civil Twilight 7:01 AM CDT 7:52 PM CDT
Nautical Twilight 6:27 AM CDT 8:26 PM CDT
Astronomical Twilight 5:51 AM CDT 9:02 PM CDT
Moon 8:34 AM CDT (3/14) 10:52 PM CDT (3/14)
Length of Visible Light 12h 50m
Length of Day
11h 50m
Waxing Crescent, 9% of the Moon is Illuminated
Mar 14
Waxing Crescent
Mar 19
First Quarter
Mar 27
Full
Apr 2
Last Quarter
Apr 10
New

Hourly Weather History & Observations

Time (CDT) Temp. Windchill Dew Point Humidity Pressure Visibility Wind Dir Wind Speed Gust Speed Precip Events Conditions
12:15 AM 23.0 °F 17.0 °F 14.0 °F 68% 30.18 in 10.0 mi SE 4.6 mph - N/A   Clear
12:35 AM 23.0 °F 15.8 °F 14.0 °F 68% 30.18 in 10.0 mi SE 5.8 mph - N/A   Clear
12:55 AM 23.0 °F 17.0 °F 14.0 °F 68% 30.18 in 10.0 mi SE 4.6 mph - N/A   Scattered Clouds
1:15 AM 23.0 °F 17.0 °F 15.8 °F 74% 30.17 in 10.0 mi SE 4.6 mph - N/A   Mostly Cloudy
1:35 AM 23.0 °F 17.0 °F 15.8 °F 74% 30.17 in 10.0 mi SE 4.6 mph - N/A   Mostly Cloudy
1:55 AM 23.0 °F 17.0 °F 15.8 °F 74% 30.16 in 10.0 mi SE 4.6 mph - N/A   Mostly Cloudy
2:15 AM 23.0 °F 15.8 °F 19.4 °F 86% 30.15 in 1.0 mi SE 5.8 mph - N/A Snow Snow
2:35 AM 23.0 °F 15.8 °F 19.4 °F 86% 30.15 in 1.0 mi SE 5.8 mph - N/A Snow Snow
2:54 AM 23.0 °F 17.0 °F 19.4 °F 86% 30.15 in 0.5 mi SE 4.6 mph - 0.02 in Snow Heavy Snow
3:15 AM 23.0 °F 17.0 °F 19.4 °F 86% 30.14 in 0.5 mi ESE 4.6 mph - 0.01 in Snow Heavy Snow
3:35 AM 23.0 °F 14.7 °F 21.2 °F 93% 30.13 in 1.0 mi East 6.9 mph - 0.03 in Snow Light Snow
3:55 AM 23.0 °F 15.8 °F 21.2 °F 93% 30.12 in 1.0 mi ESE 5.8 mph - 0.05 in Snow Light Snow
4:16 AM 23.0 °F 17.0 °F 21.2 °F 93% 30.11 in 0.8 mi ESE 4.6 mph - 0.01 in Snow Snow
4:35 AM 23.0 °F 15.8 °F 21.2 °F 93% 30.09 in 1.0 mi ESE 5.8 mph - 0.03 in Snow Snow
4:55 AM 23.0 °F 15.8 °F 21.2 °F 93% 30.09 in 0.8 mi SE 5.8 mph - 0.04 in Snow Snow
5:16 AM 23.0 °F 13.1 °F 21.2 °F 93% 30.08 in 2.5 mi SE 9.2 mph - 0.02 in Snow Light Snow
5:35 AM 23.0 °F 13.9 °F 21.2 °F 93% 30.06 in 4.0 mi ESE 8.1 mph - 0.02 in Snow Light Snow
5:55 AM 23.0 °F 13.1 °F 21.2 °F 93% 30.07 in 5.0 mi SE 9.2 mph - 0.03 in Snow Light Snow
6:16 AM 23.0 °F 13.1 °F 21.2 °F 93% 30.07 in 2.5 mi SE 9.2 mph - N/A Snow Light Snow
6:35 AM 23.0 °F 12.4 °F 21.2 °F 93% 30.07 in 10.0 mi SE 10.4 mph - N/A   Mostly Cloudy
6:55 AM 23.0 °F 13.9 °F 21.2 °F 93% 30.07 in 10.0 mi SE 8.1 mph - N/A   Overcast
7:16 AM 24.8 °F 19.1 °F 21.2 °F 86% 30.09 in 10.0 mi SE 4.6 mph - N/A   Overcast
7:35 AM 24.8 °F 20.5 °F 21.2 °F 86% 30.09 in 10.0 mi SE 3.5 mph - N/A   Overcast
7:55 AM 24.8 °F - 21.2 °F 86% 30.09 in 10.0 mi Calm Calm - N/A   Overcast
8:15 AM 24.8 °F 20.5 °F 21.2 °F 86% 30.10 in 7.0 mi ESE 3.5 mph - N/A   Overcast
8:35 AM 24.8 °F - 21.2 °F 86% 30.10 in 7.0 mi Calm Calm - N/A   Overcast
8:55 AM 24.8 °F 19.1 °F 21.2 °F 86% 30.09 in 7.0 mi ESE 4.6 mph - N/A   Overcast
9:16 AM 26.6 °F 21.2 °F 21.2 °F 80% 30.10 in 7.0 mi SE 4.6 mph - N/A   Overcast
9:35 AM 26.6 °F 20.0 °F 21.2 °F 80% 30.09 in 7.0 mi SE 5.8 mph - N/A   Overcast
9:56 AM 26.6 °F 20.0 °F 21.2 °F 80% 30.11 in 5.0 mi SSE 5.8 mph - N/A   Overcast
10:15 AM 26.6 °F 20.0 °F 23.0 °F 86% 30.10 in 5.0 mi South 5.8 mph - N/A   Overcast
10:35 AM 26.6 °F 21.2 °F 23.0 °F 86% 30.10 in 5.0 mi SSE 4.6 mph - N/A   Overcast
10:56 AM 28.4 °F 22.2 °F 23.0 °F 80% 30.10 in 5.0 mi South 5.8 mph - N/A   Haze
11:15 AM 28.4 °F 22.2 °F 23.0 °F 80% 30.10 in 5.0 mi SE 5.8 mph - N/A   Haze
11:35 AM 28.4 °F 24.6 °F 23.0 °F 80% 30.11 in 7.0 mi SSE 3.5 mph - N/A   Overcast
11:56 AM 28.4 °F - 23.0 °F 80% 30.12 in 7.0 mi Calm Calm - N/A   Mostly Cloudy
12:15 PM 30.2 °F - 23.0 °F 75% 30.10 in 7.0 mi Calm Calm - N/A   Scattered Clouds
12:35 PM 30.2 °F 26.7 °F 23.0 °F 75% 30.09 in 7.0 mi ESE 3.5 mph - N/A   Clear
12:56 PM 32.0 °F - 23.0 °F 69% 30.09 in 7.0 mi Calm Calm - N/A   Clear
1:15 PM 32.0 °F - 23.0 °F 69% 30.09 in 7.0 mi Calm Calm - N/A   Clear
1:35 PM 32.0 °F - 23.0 °F 69% 30.09 in 10.0 mi Calm Calm - N/A   Clear
1:56 PM 33.8 °F - 23.0 °F 65% 30.07 in 10.0 mi Calm Calm - N/A   Clear
2:15 PM 33.8 °F - 24.8 °F 70% 30.08 in 10.0 mi Calm Calm - N/A   Clear
2:35 PM 33.8 °F - 24.8 °F 70% 30.09 in 7.0 mi Calm Calm - N/A   Clear
2:55 PM 33.8 °F 30.8 °F 24.8 °F 70% 30.10 in 10.0 mi South 3.5 mph - N/A   Clear
3:15 PM 33.8 °F 30.8 °F 24.8 °F 70% 30.09 in 10.0 mi South 3.5 mph - N/A   Clear
3:36 PM 33.8 °F 29.6 °F 24.8 °F 70% 30.08 in 10.0 mi South 4.6 mph - N/A   Clear
3:55 PM 33.8 °F 29.6 °F 24.8 °F 70% 30.06 in 10.0 mi SE 4.6 mph - N/A   Clear
4:15 PM 33.8 °F 29.6 °F 24.8 °F 70% 30.06 in 10.0 mi South 4.6 mph - N/A   Clear
4:36 PM 35.6 °F 32.8 °F 24.8 °F 65% 30.06 in 10.0 mi SW 3.5 mph - N/A   Clear
4:55 PM 35.6 °F 31.7 °F 24.8 °F 65% 30.06 in 10.0 mi SW 4.6 mph - N/A   Clear
5:15 PM 35.6 °F 32.8 °F 24.8 °F 65% 30.07 in 10.0 mi SSW 3.5 mph - N/A   Clear
5:35 PM 33.8 °F 28.6 °F 24.8 °F 70% 30.07 in 10.0 mi SW 5.8 mph - N/A   Clear
5:55 PM 33.8 °F 28.6 °F 24.8 °F 70% 30.06 in 10.0 mi SSW 5.8 mph - N/A   Clear
6:15 PM 33.8 °F 28.6 °F 24.8 °F 70% 30.05 in 10.0 mi SSW 5.8 mph - N/A   Clear
6:35 PM 33.8 °F 27.7 °F 24.8 °F 70% 30.05 in 10.0 mi SSW 6.9 mph - N/A   Clear
6:55 PM 32.0 °F 27.5 °F 24.8 °F 75% 30.05 in 10.0 mi SW 4.6 mph - N/A   Clear
7:15 PM 32.0 °F 27.5 °F 24.8 °F 75% 30.04 in 10.0 mi South 4.6 mph - N/A   Clear
7:35 PM 32.0 °F 26.4 °F 24.8 °F 75% 30.03 in 10.0 mi South 5.8 mph - N/A   Clear
7:55 PM 32.0 °F 27.5 °F 23.0 °F 69% 30.02 in 10.0 mi South 4.6 mph - N/A   Clear
8:15 PM 30.2 °F - 23.0 °F 75% 30.02 in 10.0 mi Calm Calm - N/A   Clear
8:35 PM 30.2 °F - 23.0 °F 75% 30.02 in 10.0 mi Calm Calm - N/A   Clear
8:55 PM 28.4 °F 24.6 °F 23.0 °F 80% 30.02 in 10.0 mi WSW 3.5 mph - N/A   Clear
9:15 PM 28.4 °F - 23.0 °F 80% 30.02 in 10.0 mi Calm Calm - N/A   Clear
9:35 PM 26.6 °F - 21.2 °F 80% 30.02 in 7.0 mi Calm Calm - N/A   Clear
9:55 PM 26.6 °F - 23.0 °F 86% 30.02 in 7.0 mi Calm Calm - N/A   Clear
10:16 PM 24.8 °F - 21.2 °F 86% 30.02 in 5.0 mi Calm Calm - N/A   Clear
10:35 PM 26.6 °F - 23.0 °F 86% 30.01 in 5.0 mi Calm Calm - N/A   Clear
10:55 PM 23.0 °F - 21.2 °F 93% 30.01 in 5.0 mi Calm Calm - N/A   Clear
11:16 PM 26.6 °F - 21.2 °F 80% 30.01 in 5.0 mi Calm Calm - N/A   Clear
11:35 PM 26.6 °F - 23.0 °F 86% 30.00 in 5.0 mi Calm Calm - N/A   Clear
11:55 PM 26.6 °F - 23.0 °F 86% 29.99 in 5.0 mi Calm Calm - N/A   Clear